FREGAT DEB, 45638

Orbit data source: Space-Track

FREGAT DEB, 45638 is space debris in LEO originally from a launch on Mon, 18 Jul 2011 UTC launched from the Tyuratam Missile And Space Complex (TTMTR). Debris objects in space refer to the collection of defunct objects orbiting the Earth. Examples of debris include non-operational satellites, rocket bodies, and fragments generated from explosions, collisions, or faulty payload assembly.

Loading next visibility...
Identifier
45638, 2011-037AE
Orbit
LEO
Country
Flag of CISCIS
Related business
Manufacturer
Lavochkin
Mission
Spacecraft
Bus & Motor
Unknown
Mass
Unknown
Launch date (UTC)
2011-07-18 (14 years ago)
Launch vehicle
Unknown
Launch site
Tyuratam Missile And Space Complex (TTMTR)
Object type
Payload
Rocket body
Debris
Shape & HBR
Unknown shape, 0.1 m
Radar Cross Section
Small (<0.1 m²)

Expand to show TLE details & history
Last TLE update: 15 hours ago

TLE from 15 hours ago
0 FREGAT DEB
1 45638U 11037AE  25310.69173169  .00055120  00000-0  37166-2 0  9999
2 45638  51.4041 179.8594 1217774 323.3041  29.0120 12.92971517236336
Epoch: 2025-11-06T16:36Z
TLE epoch observation values (Epoch: 2025-11-06T16:36:05.618Z)
Latitude
0.00005°
Longitude
-115.31037°
Altitude
505.496 km
Speed
7.992 km/s
True Right ascension
11h 59m 26s
True Declination
0° 00' 00"
Sunlit
Object was in daylight at epoch
Visualization orbit readout
Latitude
Unknown
Longitude
Unknown
Altitude
Unknown
Speed
Unknown
Apparent Right ascension
Unknown
Apparent Declination
Unknown
Sunlit
N/A
Visualization observer readout
Local Sidereal Time
03:47:14
Azimuth
Unknown
Elevation
Unknown
Doppler factor
Unknown
Orbital elements
Apogee altitude
2,224.086 km
Perigee altitude
356.413 km
Semi-major axis
7,668.386 km
Eccentricity
0.12178
Inclination
51.4041°
RAAN
179.8594°
Arg. of periapsis
323.3041°
True anomaly
36.78737°
Mean anomaly
29.012°
Eccentric anomaly
32.79073°
Mean motion
3.23212 °/min
Orbital period
111.38 mins
BSTAR
0.0037166
Loading maneuver chart data...
Computing Atmospheric mass density...
Loading historical data...
Loading historical data...
Loading historical data...
Loading historical data...
Loading historical data...
Loading historical data...
Loading historical data...

Documentation

Showing up to 5 results
|